STARLINK-1163 (45069 NORAD) Tracking and Keplerian Element Data

This shows tracking and keplerian element data for the satellite.

Feedback or suggestion? Click here.




ElementValue
Catalog45069
NameSTARLINK-1163
Epoch Orbit176
Epoch Day196.91667824
Epoch Year2020
RAAN171.2519
Inclination52.9989
Eccentricity0.0001366
Argument of Perigee94.2233
Mean Anonmoly270.8688
Mean Motion15.05583537
Decay Rate0.00023742
L11 45069U 20006AB 20196.91667824 .00023742 00000-0 16430-2 0 9997
L22 45069 52.9989 171.2519 0001366 94.2233 270.8688 15.05583537 1768

Live tracking and technical data element details for STARLINK-1163 (NORAD 45069). STARLINK-1163 can be tracked NOW for your location showing map with azimuth and elevation plus other details from your city location.

Track the satellite on the map from your city or location and see movement details for azimuth, elevation, latitude, longitude, range, height, and movement on the map or in text.







IsCatalogInMostPopularTable: catalog: 45069, numindb: 31
Update: records affected: 1



GetName: 45069 STARLINK-1163

Hit Count: updated at: Thu, 16 Jul 2020 03:49:54 GMT